Vorticity
5 5 11 12 11 7 6 5 5 3 7 7 5 5 5 2 7 4 4 4 5 5 7 8 6 5 5 4 2 5 3 5 3 12 11 6 -0 7 2 2 9 10 6 7
4 4 6 9 14 4 4 9 11 10 7 5 4 5 5 9 9 10 6 7 5 6 8 4 3 3 2 2 3 4 4 3 3 1 -12 8 12 1 7 10 9 12 12 16
4 4 6 9 8 11 8 4 3 3 3 4 5 4 9 8 7 5 11 14 11 9 7 5 5 5 6 5 3 3 5 8 2 10 20 0 6 7 7 8 10 9 7 4
7 10 9 7 7 10 10 11 6 7 6 3 2 6 10 6 2 8 7 12 12 6 4 3 2 4 1 4 7 10 8 1 3 6 5 6 4 7 12 4 2 6 11 15
7 6 4 4 5 5 5 5 6 7 7 7 9 9 12 7 4 2 13 4 3 5 8 8 5 -8 1 4 4 5 7 8 7 4 4 5 9 2 -2 3 7 8 11 7
8 9 7 6 5 3 4 7 6 4 4 5 6 7 8 11 5 10 2 9 5 3 5 -1 -8 -9 -3 2 11 12 6 -1 6 1 3 5 1 5 9 6 7 9 10 12
0 1 5 6 6 6 7 7 2 2 5 6 7 9 6 6 6 3 4 4 5 -0 -1 3 2 3 7 14 10 5 4 10 4 6 2 6 5 6 1 5 6 15 12 10
4 6 5 5 4 4 3 3 3 2 4 6 7 10 5 8 8 11 17 17 14 10 10 9 12 16 16 7 8 11 9 -0 4 4 3 6 -2 1 1 4 3 12 11 10
8 5 6 6 5 3 2 1 7 1 -0 2 2 4 6 3 6 14 16 14 10 10 7 10 5 6 3 2 3 3 1 5 2 2 3 4 2 2 2 9 9 9 17 9
3 6 4 4 4 3 2 3 1 2 0 4 10 10 5 2 2 10 10 12 9 4 5 6 6 5 5 6 4 2 7 6 0 -0 5 7 1 3 0 6 12 15 13 14
5 6 3 6 6 6 6 1 1 4 -0 -2 7 13 7 10 9 13 14 2 6 9 9 9 8 9 11 10 11 9 4 0 3 11 5 -0 1 5 4 6 15 15 20 15
11 7 6 6 2 5 3 1 2 1 8 10 7 11 11 9 6 0 2 12 1 1 3 5 4 3 5 6 5 4 6 8 7 5 4 -0 1 2 8 19 14 19 15 15
3 2 6 5 5 3 2 7 4 5 6 -3 7 4 14 13 8 9 3 -1 0 1 4 5 4 6 7 6 5 5 4 8 13 9 0 1 3 10 20 18 16 14 16 21
7 4 5 -1 8 7 3 1 3 6 1 17 -0 13 11 8 8 3 -0 -1 -2 4 11 9 10 6 5 8 7 5 10 7 6 6 2 2 8 21 17 18 15 18 21 19
5 4 6 3 5 2 4 6 9 8 10 0 5 6 2 4 5 -2 3 5 6 6 5 7 4 7 5 -0 3 8 9 13 3 0 -1 2 14 25 18 15 17 17 21 20
8 9 10 5 9 11 6 9 9 7 10 4 6 5 3 6 5 5 9 10 8 8 9 6 5 9 9 9 9 10 7 3 0 1 6 20 28 20 13 16 17 18 14 11
11 15 31 7 18 14 6 11 7 8 7 7 4 9 5 12 10 -1 2 8 0 6 13 9 10 15 6 14 17 8 1 4 3 20 29 25 15 20 18 17 18 13 10 10
13 7 14 16 5 15 21 16 16 14 13 12 7 6 8 6 0 3 2 3 1 6 9 11 9 11 13 11 6 2 1 19 31 25 20 18 19 18 21 12 9 16 14 12
14 10 8 -5 8 16 11 2 7 9 8 10 12 10 14 10 10 9 14 5 6 11 10 13 5 -3 -5 0 16 31 34 29 20 18 19 20 17 14 6 12 1 6 20 14
-17 -21 -12 8 2 0 10 10 10 8 4 7 6 3 2 8 10 10 10 17 14 9 5 7 14 23 31 28 29 26 19 17 21 16 20 12 9 6 10 4 3 12 20 13
14 19 13 18 16 19 22 18 19 13 20 -7 4 7 7 4 4 6 -2 -0 19 27 35 40 39 33 23 19 20 17 19 15 16 16 9 10 8 7 5 5 11 16 17 16
23 20 23 30 24 34 54 47 35 28 25 36 24 26 24 28 31 34 35 37 29 31 36 28 17 23 19 12 13 13 9 12 16 9 9 10 9 7 11 14 10 19 15 15
18 12 4 7 10 5 8 -14 11 16 22 13 8 12 24 21 26 -4 26 30 21 23 6 9 14 8 9 12 9 6 10 15 16 14 11 5 7 6 17 13 16 15 14 9
11 11 13 15 10 12 9 9 12 -15 -16 -11 -12 -23 29 -6 9 10 10 13 13 0 14 16 16 8 10 8 10 14 10 6 7 3 9 14 17 18 15 16 12 10 10 9
18 18 8 9 9 4 6 3 8 11 15 13 3 26 2 -1 -32 13 15 24 6 6 8 13 20 10 6 7 11 6 7 8 16 14 11 15 14 10 11 14 15 20 11 9
6 5 5 10 8 10 19 12 11 13 30 31 27 23 7 13 0 23 16 0 11 10 15 17 1 9 6 5 10 7 16 12 2 10 13 14 13 18 15 10 8 10 13 15
Height
5828 5827 5826 5825 5826 5826 5826 5826 5824 5823 5824 5824 5823 5825 5822 5821 5824 5822 5821 5820 5819 5819 5818 5817 5816 5813 5812 5810 5808 5806 5805 5802 5800 5797 5795 5792 5789 5785 5782 5778 5774 5769 5765 5759
5823 5822 5821 5821 5820 5820 5820 5820 5819 5818 5817 5817 5816 5819 5815 5814 5815 5816 5815 5814 5813 5813 5812 5811 5810 5808 5806 5804 5802 5799 5796 5794 5791 5788 5784 5782 5779 5775 5771 5767 5763 5760 5756 5751
5817 5817 5815 5815 5815 5814 5813 5813 5812 5812 5809 5809 5809 5811 5811 5809 5808 5807 5807 5807 5806 5805 5804 5804 5802 5800 5798 5796 5793 5791 5788 5785 5781 5777 5773 5771 5769 5766 5762 5758 5754 5750 5746 5741
5811 5811 5809 5809 5808 5807 5807 5807 5806 5805 5803 5802 5803 5798 5808 5804 5803 5801 5801 5800 5799 5797 5796 5795 5794 5792 5790 5788 5785 5782 5779 5776 5772 5769 5767 5764 5761 5758 5753 5749 5744 5739 5735 5730
5805 5804 5804 5803 5803 5800 5801 5799 5797 5795 5794 5791 5797 5787 5797 5799 5799 5797 5795 5794 5792 5790 5788 5787 5784 5783 5780 5778 5774 5772 5770 5768 5764 5760 5756 5754 5751 5748 5743 5737 5731 5726 5722 5716
5795 5795 5796 5796 5796 5794 5794 5792 5789 5786 5786 5779 5788 5781 5776 5793 5791 5790 5787 5787 5785 5784 5783 5780 5777 5774 5771 5769 5766 5763 5761 5758 5755 5751 5748 5744 5740 5735 5730 5724 5719 5714 5708 5703
5786 5786 5787 5786 5786 5785 5784 5784 5780 5777 5778 5773 5773 5768 5772 5778 5782 5780 5777 5777 5777 5775 5773 5770 5767 5764 5762 5759 5756 5754 5751 5747 5743 5738 5735 5730 5725 5720 5715 5710 5705 5701 5695 5690
5774 5776 5777 5777 5775 5774 5772 5773 5772 5765 5763 5763 5761 5755 5763 5766 5769 5771 5771 5769 5767 5764 5761 5759 5756 5753 5750 5747 5744 5741 5738 5734 5729 5725 5720 5716 5712 5707 5701 5696 5691 5685 5679 5674
5761 5761 5765 5765 5764 5763 5762 5760 5763 5757 5753 5748 5746 5746 5748 5750 5755 5758 5758 5757 5754 5752 5750 5748 5746 5742 5738 5735 5732 5729 5725 5720 5716 5712 5707 5702 5697 5692 5687 5681 5675 5670 5664 5658
5750 5749 5751 5752 5752 5752 5752 5752 5749 5749 5744 5736 5733 5733 5733 5733 5736 5742 5743 5742 5740 5737 5735 5733 5730 5727 5724 5721 5718 5715 5710 5706 5701 5696 5692 5686 5681 5677 5672 5666 5661 5655 5649 5643
5737 5736 5737 5736 5739 5741 5739 5736 5737 5738 5733 5729 5726 5720 5721 5722 5723 5727 5727 5725 5723 5720 5719 5717 5714 5711 5708 5705 5701 5698 5693 5689 5685 5681 5676 5671 5666 5661 5657 5651 5645 5639 5633 5626
5725 5722 5721 5724 5723 5723 5723 5725 5724 5721 5721 5718 5712 5708 5716 5713 5713 5715 5714 5710 5707 5704 5702 5700 5697 5694 5691 5687 5684 5680 5676 5672 5668 5664 5660 5655 5651 5645 5640 5633 5627 5621 5615 5609
5704 5705 5708 5709 5711 5707 5709 5712 5711 5708 5704 5697 5696 5696 5705 5703 5701 5701 5699 5697 5694 5693 5690 5686 5683 5681 5678 5673 5669 5665 5661 5657 5652 5648 5644 5639 5634 5628 5622 5615 5609 5604 5599 5595
5684 5688 5690 5695 5700 5693 5692 5694 5693 5689 5683 5686 5677 5685 5691 5688 5687 5684 5681 5679 5677 5677 5673 5671 5669 5665 5661 5657 5653 5649 5645 5641 5637 5632 5628 5623 5617 5611 5605 5599 5594 5589 5585 5581
5667 5668 5670 5675 5678 5671 5674 5676 5676 5667 5667 5663 5670 5665 5678 5669 5671 5669 5665 5664 5662 5658 5655 5654 5651 5647 5645 5641 5636 5632 5629 5624 5620 5615 5610 5605 5600 5595 5589 5584 5579 5575 5572 5568
5649 5649 5650 5652 5656 5651 5652 5658 5657 5654 5652 5649 5649 5649 5659 5653 5649 5648 5647 5645 5642 5642 5640 5637 5633 5632 5628 5624 5620 5616 5611 5607 5602 5597 5592 5587 5584 5580 5575 5570 5566 5564 5560 5556
5631 5630 5630 5630 5635 5632 5633 5638 5639 5638 5638 5634 5629 5635 5634 5629 5629 5630 5627 5624 5625 5625 5623 5617 5615 5613 5610 5606 5602 5598 5594 5590 5585 5580 5576 5572 5569 5565 5562 5559 5555 5553 5550 5548
5613 5614 5612 5611 5614 5611 5618 5618 5618 5616 5617 5614 5613 5612 5611 5608 5608 5612 5608 5605 5608 5604 5602 5600 5598 5595 5593 5589 5585 5581 5577 5572 5568 5564 5560 5557 5555 5553 5551 5549 5547 5544 5541 5537
5595 5594 5594 5593 5593 5595 5603 5599 5597 5595 5597 5592 5591 5591 5591 5589 5589 5596 5588 5585 5585 5583 5583 5582 5579 5577 5574 5569 5565 5562 5558 5555 5551 5548 5546 5545 5543 5542 5541 5539 5537 5534 5532 5530
5579 5578 5577 5578 5574 5573 5581 5581 5577 5572 5576 5572 5570 5569 5568 5566 5566 5576 5567 5563 5563 5562 5561 5560 5558 5555 5552 5548 5546 5544 5541 5539 5537 5535 5534 5534 5533 5533 5532 5530 5528 5524 5522 5521
5561 5559 5557 5554 5552 5552 5558 5559 5557 5554 5556 5554 5551 5550 5548 5546 5545 5548 5548 5545 5543 5541 5540 5539 5538 5536 5534 5532 5531 5529 5528 5527 5526 5525 5524 5523 5523 5522 5522 5520 5516 5515 5513 5512
5542 5541 5540 5536 5535 5536 5537 5535 5535 5532 5532 5532 5532 5529 5525 5526 5527 5524 5526 5526 5525 5523 5524 5524 5522 5521 5519 5519 5518 5518 5517 5517 5516 5515 5515 5514 5514 5512 5510 5509 5506 5505 5504 5504
5529 5527 5521 5521 5519 5524 5520 5520 5516 5512 5515 5512 5511 5512 5508 5510 5511 5509 5509 5509 5508 5509 5509 5509 5509 5508 5508 5509 5508 5508 5507 5506 5505 5505 5505 5503 5503 5502 5499 5498 5497 5496 5496 5495
5515 5511 5506 5502 5508 5508 5502 5502 5502 5497 5496 5500 5497 5498 5497 5496 5497 5497 5497 5498 5498 5498 5498 5497 5498 5499 5499 5499 5499 5498 5497 5497 5496 5495 5494 5493 5491 5490 5489 5489 5489 5488 5488 5488
5505 5498 5494 5487 5491 5486 5487 5485 5479 5481 5478 5481 5483 5482 5482 5479 5483 5484 5487 5486 5486 5486 5487 5488 5488 5488 5489 5489 5489 5488 5488 5488 5487 5485 5485 5483 5482 5481 5481 5480 5480 5480 5481 5481
5495 5483 5473 5466 5471 5463 5467 5465 5462 5464 5462 5462 5464 5466 5463 5462 5467 5470 5475 5474 5474 5475 5475 5475 5478 5478 5478 5479 5480 5478 5479 5478 5477 5477 5475 5475 5473 5473 5472 5472 5472 5473 5472 5473